SCOUT B DEB, 28793

Orbit data source: Space-Track

SCOUT B DEB, 28793 is space debris in LEO originally from a launch on Tue, 10 Aug 1965 UTC launched from the Wallops Island (WLPIS). Debris objects in space refer to the collection of defunct objects orbiting the Earth. Examples of debris include non-operational satellites, rocket bodies, and fragments generated from explosions, collisions, or faulty payload assembly.

Loading next visibility...
Identifier
28793, 1965-063C
Orbit
LEO
Country
Flag of USUS
Related business
Manufacturer
Unknown
Mission
Spacecraft
Bus & Motor
Unknown
Mass
Unknown
Launch date (UTC)
1965-08-10 (61 years ago)
Launch vehicle
Unknown
Launch site
Wallops Island (WLPIS)
Object type
Payload
Rocket body
Debris
Shape & HBR
Unknown shape, 0.1 m
Radar Cross Section
Small (<0.1 m²)

Expand to show TLE details & history
Last TLE update: 2 weeks ago

TLE from 2 weeks ago
0 SCOUT B DEB
1 28793U 65063C   26093.53200108  .00003008  00000-0  12926-1 0  9990
2 28793  69.2046  53.7800 0764935  27.8623 336.1243 12.13286812467501
Epoch: 2026-04-03T12:46Z
TLE epoch observation values (Epoch: 2026-04-03T12:46:04.893Z)
Latitude
-0.00002°
Longitude
30.39482°
Altitude
1,072.87 km
Speed
7.564 km/s
True Right ascension
03h 35m 07s
True Declination
0° 00' 00"
Sunlit
Object was in daylight at epoch
Visualization orbit readout
Latitude
Unknown
Longitude
Unknown
Altitude
Unknown
Speed
Unknown
Apparent Right ascension
Unknown
Apparent Declination
Unknown
Sunlit
N/A
Visualization observer readout
Local Sidereal Time
15:40:47
Azimuth
Unknown
Elevation
Unknown
Doppler factor
Unknown
Orbital elements
Apogee altitude
2,232.015 km
Perigee altitude
1,008.374 km
Semi-major axis
7,998.331 km
Eccentricity
0.07649
Inclination
69.2046°
RAAN
53.78°
Arg. of periapsis
27.8623°
True anomaly
332.24097°
Mean anomaly
336.1243°
Eccentric anomaly
334.21803°
Mean motion
3.0342 °/min
Orbital period
118.65 mins
BSTAR
0.012926
Loading maneuver chart data...
Computing Atmospheric mass density...
Loading historical data...
Loading historical data...
Loading historical data...
Loading historical data...
Loading historical data...
Loading historical data...
Loading historical data...

Documentation

Showing up to 5 results
|